Douglas Lake Weather Center

Moon Phase Calendar



Douglas Lake Water Level
Online Cameras

 


      

Current Conditions in Dandridge
12/7/2022 11:43:03 AM

58°F
Feels Like 58
Rain
Humidity
98%
Pressure
30.18"
Wind
2.6 mph (S)
Dew Point
58°F
UV Index
0/10 (Low)
Visibility
6 mi

Hourly Forecast

Date & Time Wed, Dec 7
11:00 AM
Wed, Dec 7
12:00 PM
Wed, Dec 7
1:00 PM
Wed, Dec 7
2:00 PM
Wed, Dec 7
3:00 PM
Wed, Dec 7
4:00 PM
Wed, Dec 7
5:00 PM
Wed, Dec 7
6:00 PM
Wed, Dec 7
7:00 PM
Wed, Dec 7
8:00 PM
Wed, Dec 7
9:00 PM
Wed, Dec 7
10:00 PM
Wed, Dec 7
11:00 PM
Thu, Dec 8
12:00 AM
Thu, Dec 8
1:00 AM
Thu, Dec 8
2:00 AM
Thu, Dec 8
3:00 AM
Thu, Dec 8
4:00 AM
Thu, Dec 8
5:00 AM
Thu, Dec 8
6:00 AM
Thu, Dec 8
7:00 AM
Thu, Dec 8
8:00 AM
Thu, Dec 8
9:00 AM
Thu, Dec 8
10:00 AM
Thu, Dec 8
11:00 AM
Thu, Dec 8
12:00 PM
Thu, Dec 8
1:00 PM
Thu, Dec 8
2:00 PM
Thu, Dec 8
3:00 PM
Thu, Dec 8
4:00 PM
Thu, Dec 8
5:00 PM
Thu, Dec 8
6:00 PM
Thu, Dec 8
7:00 PM
Thu, Dec 8
8:00 PM
Thu, Dec 8
9:00 PM
Thu, Dec 8
10:00 PM
Thu, Dec 8
11:00 PM
Fri, Dec 9
12:00 AM
Fri, Dec 9
1:00 AM
Fri, Dec 9
2:00 AM
Fri, Dec 9
3:00 AM
Fri, Dec 9
4:00 AM
Fri, Dec 9
5:00 AM
Fri, Dec 9
6:00 AM
Fri, Dec 9
7:00 AM
Fri, Dec 9
8:00 AM
Fri, Dec 9
9:00 AM
Fri, Dec 9
10:00 AM
Condition
Rain

Clouds

Rain

Clouds

Rain

Rain

Rain

Rain

Rain

Rain

Rain

Rain

Rain

Rain

Clouds

Clouds

Rain

Clouds

Clouds

Clouds

Clouds

Clouds

Clouds

Clouds

Rain

Rain

Rain

Clouds

Rain

Rain

Rain

Rain

Clouds

Clouds

Rain

Rain

Rain

Rain

Rain

Rain

Rain

Rain

Rain

Rain

Rain

Rain

Rain

Rain
Temperature 58°F58°F59°F59°F61°F62°F63°F63°F62°F61°F61°F61°F61°F61°F61°F60°F60°F60°F60°F60°F60°F60°F61°F61°F61°F60°F60°F61°F62°F61°F61°F60°F62°F62°F62°F62°F63°F63°F63°F63°F62°F62°F62°F61°F61°F62°F62°F63°F
Feels Like 59°F58°F59°F59°F61°F63°F63°F63°F62°F62°F62°F61°F61°F61°F61°F61°F60°F60°F60°F60°F60°F60°F61°F62°F61°F60°F61°F61°F62°F61°F61°F61°F62°F62°F63°F63°F63°F64°F64°F64°F63°F62°F62°F62°F61°F62°F62°F63°F
Cloudiness 99%99%99%99%100%100%100%100%100%100%100%100%100%100%100%95%97%98%99%99%99%100%100%100%100%100%100%100%100%100%100%99%99%95%97%98%99%99%99%100%100%100%100%100%100%100%100%100%
Visibility 5 mi6 mi1 mi5 mi6 mi6 mi6 mi6 mi6 mi2 mi3 mi2 mi3 mi5 mi6 mi6 mi6 mi6 mi6 mi6 mi6 mi6 mi6 mi6 mi4 mi6 mi6 mi6 mi6 mi6 mi6 mi6 mi6 mi6 mi6 mi6 mi6 mi6 mi6 mi6 mi6 mi6 mi6 mi6 mi2 mi5 mi5 mi4 mi
Precipitation 78%85%89%80%100%100%100%100%100%75%79%79%75%75%75%6%26%0%0%0%0%0%2%25%50%69%71%38%73%90%94%95%75%46%61%75%81%89%93%100%97%100%97%97%100%100%100%100%
Humidity 98%98%99%99%96%95%96%97%98%99%99%99%99%99%99%99%99%99%99%98%98%98%97%96%98%99%99%98%96%98%97%97%95%94%93%93%91%92%92%93%95%96%96%97%98%97%96%95%
Dew Point 58°F58°F58°F59°F60°F61°F61°F61°F61°F60°F60°F60°F60°F60°F60°F59°F59°F59°F59°F59°F59°F59°F59°F59°F59°F59°F59°F59°F60°F59°F59°F59°F60°F60°F59°F59°F60°F60°F60°F60°F60°F60°F60°F60°F60°F60°F60°F60°F
Pressure 30.18"30.18"30.18"30.18"30.21"30.21"30.21"30.21"30.24"30.24"30.27"30.27"30.27"30.24"30.24"30.24"30.24"30.24"30.21"30.21"30.21"30.21"30.24"30.21"30.21"30.18"30.15"30.12"30.09"30.09"30.09"30.09"30.09"30.09"30.09"30.06"30.06"30.06"30.06"30.06"30.06"30.03"30.03"30"30"30"30.03"30"
Wind Speed 2.5 mph2.6 mph3.9 mph4.8 mph5.5 mph7.1 mph6.6 mph6.3 mph4 mph3.5 mph2.4 mph2.2 mph3 mph2.3 mph2.2 mph3.2 mph1.7 mph0.4 mph1.1 mph0.7 mph0.2 mph0.8 mph1 mph3.1 mph2.8 mph2 mph2.2 mph1.9 mph0.4 mph3.4 mph3.3 mph4.1 mph3.9 mph4 mph6.5 mph6.2 mph8.5 mph9.7 mph9.9 mph9.3 mph7.7 mph6.9 mph5.2 mph4.8 mph4.4 mph5.6 mph6.9 mph8.5 mph
Wind
Direction
226°
SW
185°
S
267°
W
210°
SSW
221°
SW
242°
WSW
244°
WSW
250°
WSW
259°
W
239°
WSW
233°
SW
252°
WSW
251°
WSW
244°
WSW
225°
SW
292°
WNW
292°
WNW

N
124°
SE
115°
ESE
108°
ESE
100°
E
46°
NE
69°
ENE
74°
ENE
67°
ENE
90°
E
101°
E
188°
S
200°
SSW
214°
SW
214°
SW
192°
SSW
217°
SW
232°
SW
232°
SW
238°
WSW
238°
WSW
241°
WSW
243°
WSW
246°
WSW
238°
WSW
232°
SW
226°
SW
258°
WSW
241°
WSW
231°
SW
228°
SW

Daily Forecast

Date High Low Precip. Humidity
Today
Dec 7

Rain
63 °F
57 °F
100%
98%
Thursday
Dec 8

Rain
63 °F
60 °F
95%
99%
Friday
Dec 9

Rain
64 °F
54 °F
100%
92%
Saturday
Dec 10

Rain
61 °F
49 °F
100%
60%
Sunday
Dec 11

Rain
58 °F
44 °F
100%
83%
Monday
Dec 12

Clear
53 °F
39 °F
0%
58%
Tuesday
Dec 13

Clouds
56 °F
37 °F
0%
52%
Wednesday
Dec 14

Rain
60 °F
46 °F
100%
67%
Thursday
Dec 15

Rain
60 °F
50 °F
100%
89%
Friday
Dec 16

Clouds
49 °F
39 °F
0%
56%
Saturday
Dec 17

Clear
41 °F
30 °F
0%
48%
Sunday
Dec 18

Clear
43 °F
29 °F
0%
47%
Monday
Dec 19

Clear
47 °F
29 °F
0%
43%
Tuesday
Dec 20

Clouds
50 °F
34 °F
0%
51%
Wednesday
Dec 21

Rain
58 °F
39 °F
91%
68%
Thursday
Dec 22

Rain
61 °F
47 °F
69%
76%

Temperature 8-14 Day Outlook



Precipitation 8-14 Day Outlook




Quick Links
Douglas Lake News
Douglas Lake Photos
Douglas Lake Videos




About Us
Contact Us
Site Map
Search Site
Advertise With Us
   
www.DouglasLake.info
THE DOUGLAS LAKE WEBSITE

Copyright 2022, Lakes Online
Privacy    |    Legal